Location: Peterborough
(44.3091°N, 78.3197°W)
Time: 19:02:57
(UTC-04:00)

Courier 1B Rocket - Pass Details

Date: 26 March 2023
Orbit: 920 x 1202 km, 28.2° (Epoch: 04 June)

Event Time Altitude Azimuth Distance (km) Brightness Sun altitude
Rises 21:55:19 0° 235° (SW) 3,823 8.4 -24.9°
Reaches altitude 10° 21:58:57 10° 219° (SW) 2,813 7.5 -25.5°
Enters shadow 22:01:53 17° 194° (SSW) 2,271 6.7 -25.9°
